Flag for Germany Weather past 2 weeks in Plauen, Saxony, Germany

Now
56 °F

Overcast.


Feels Like: 56 °F
Forecast: 46 / 62 °F
Wind: 3 mph from Southwest

Location: Hof

Current Time: May 29, 2015 at 9:40:51 PM

Latest Report: May 29, 2015 at 9:00 PM


Visibility: 31 mi

Pressure: 29.80 "Hg

Humidity: 72%

Dew point: 47 °F

Location of PlauenLocation

Historic Weather in Plauen — Graph

°F

Plauen temperature yesterday

Maximum temperature yesterday: 61 °F (at 6:00 PM)
Minimum temperature yesterday: 44 °F (at 6:00 AM)
Average temperature yesterday: 53 °F

Past Weeks' High & Low Weather Summary

 TemperatureHumidityPressure
High67 °F (May 18, 6:00 PM)100% (May 21, 2:00 AM)30.38 "Hg (May 21, 2:00 AM)
Low36 °F (May 22, 6:00 AM)30% (May 15, 4:00 PM)29.68 "Hg (May 18, 8:00 PM)
Average51 °F68%30.05 "Hg
* Reported May 14 8:00 PM — May 29 8:00 PM, Plauen, Weather by CustomWeather, © 2015

Note: Actual official high and low records may vary slightly from our data, if they occured in-between our weather recording intervals... More about our weather records

Advertising

Plauen weather history for previous 24 hours

 ConditionsComfort  
Time TempWeatherWind HumidityBarometerVisibility
8:00 PM
Fri, May 29
59 °FOvercast.5 mph65%29.79 "Hg34 mi
7:00 PM60 °FOvercast.3 mph58%29.79 "Hg34 mi
6:00 PM60 °FOvercast.5 mph58%29.80 "Hg28 mi
4:00 PM57 °FLight rain. Overcast.3 mph72%29.85 "Hg16 mi
3:00 PM61 °FOvercast.6 mph57%29.83 "Hg22 mi
2:00 PM60 °FOvercast.5 mph59%29.86 "Hg28 mi
1:00 PM60 °FOvercast.6 mph54%29.87 "Hg22 mi
12:00 PM60 °FOvercast.5 mph60%29.88 "Hg25 mi
10:00 AM57 °FOvercast.5 mph58%29.92 "Hg19 mi
9:00 AM55 °FOvercast.3 mph72%29.93 "Hg11 mi
8:00 AM52 °FOvercast.2 mph83%29.95 "Hg7 mi
7:00 AM48 °FFog.1 mph95%29.96 "Hg4 mi
6:00 AM47 °FFog.No wind97%29.97 "Hg4 mi
4:00 AM48 °FOvercast.1 mph96%29.96 "Hg5 mi
3:00 AM49 °FOvercast.2 mph92%29.96 "Hg9 mi
2:00 AM51 °FOvercast.2 mph90%29.97 "Hg9 mi
1:00 AM53 °FLight rain. Overcast.2 mph84%29.95 "Hg6 mi
10:00 PM
Thu, May 28
58 °FOvercast.3 mph54%29.91 "Hg19 mi
9:00 PM58 °FOvercast.3 mph54%29.92 "Hg19 mi
Weather by CustomWeather, © 2015

See weather overviewHow to use our weather pages